TimeMST,TemperatureF,Dew PointF,Humidity,Sea Level PressureIn,VisibilityMPH,Wind Direction,Wind SpeedMPH,Gust SpeedMPH,PrecipitationIn,Events,Conditions,WindDirDegrees,DateUTC
12:53 AM,6.8,-2.2,67,30.30,10.0,Calm,Calm,-,N/A,,Clear,0,2013-01-03 07:53:00
1:53 AM,-0.0,-7.1,72,30.59,10.0,Calm,Calm,-,N/A,,Clear,0,2013-01-03 08:53:00
2:53 AM,-0.9,-8.0,72,30.61,10.0,Calm,Calm,-,N/A,,Clear,0,2013-01-03 09:53:00
3:53 AM,1.0,-7.1,69,30.61,10.0,North,5.8,-,N/A,,Clear,360,2013-01-03 10:53:00
4:53 AM,3.0,-5.1,69,30.61,10.0,NNE,8.1,-,N/A,,Clear,20,2013-01-03 11:53:00
5:53 AM,1.0,-7.1,69,30.66,10.0,North,3.5,-,N/A,,Clear,360,2013-01-03 12:53:00
6:53 AM,1.9,-6.0,69,30.69,10.0,Calm,Calm,-,N/A,,Clear,0,2013-01-03 13:53:00
7:53 AM,-2.9,-11.0,68,30.71,10.0,North,5.8,-,N/A,,Clear,360,2013-01-03 14:53:00
8:53 AM,10.0,-0.9,61,30.66,10.0,Calm,Calm,-,N/A,,Clear,0,2013-01-03 15:53:00
9:53 AM,16.0,-0.0,49,30.63,10.0,Calm,Calm,-,N/A,,Clear,0,2013-01-03 16:53:00
10:53 AM,17.1,1.9,52,30.65,10.0,Calm,Calm,-,N/A,,Clear,0,2013-01-03 17:53:00
11:53 AM,19.0,3.0,50,30.62,10.0,Calm,Calm,-,N/A,,Clear,0,2013-01-03 18:53:00
12:53 PM,17.1,3.9,56,30.58,10.0,SW,3.5,-,N/A,,Clear,230,2013-01-03 19:53:00
1:53 PM,19.0,3.0,50,30.58,10.0,Calm,Calm,-,N/A,,Clear,0,2013-01-03 20:53:00
2:53 PM,21.0,3.0,46,30.58,10.0,Calm,Calm,-,N/A,,Clear,0,2013-01-03 21:53:00
3:53 PM,19.9,3.0,48,30.57,10.0,ESE,3.5,-,N/A,,Clear,110,2013-01-03 22:53:00
4:53 PM,19.4,1.4,46,30.30,10.0,Calm,Calm,-,N/A,,Clear,0,2013-01-03 23:53:00
5:53 PM,12.0,1.0,61,30.61,10.0,Calm,Calm,-,N/A,,Clear,0,2013-01-04 00:53:00
6:53 PM,8.1,-2.0,64,30.63,10.0,NNW,3.5,-,N/A,,Clear,340,2013-01-04 01:53:00
7:53 PM,7.0,-0.9,70,30.63,10.0,Calm,Calm,-,N/A,,Clear,0,2013-01-04 02:53:00
8:53 PM,5.0,-4.0,66,30.58,10.0,Calm,Calm,-,N/A,,Clear,0,2013-01-04 03:53:00
9:53 PM,1.9,-6.0,69,30.59,10.0,Calm,Calm,-,N/A,,Clear,0,2013-01-04 04:53:00
10:53 PM,1.9,-6.0,69,30.59,10.0,East,3.5,-,N/A,,Clear,80,2013-01-04 05:53:00
11:53 PM,1.0,-7.1,69,30.59,10.0,Calm,Calm,-,N/A,,Clear,0,2013-01-04 06:53:00